[Date Prev][Date Next][Thread Prev][Thread Next] - [Date Index][Thread Index][Author Index]

2 Line ISS Keps 5-20



ISS
1 25544U 98067A   05139.97995370  .00023015  00000-0  17667-3 0  5073
2 25544 051.6450 045.3877 0006385 141.5860 042.1436 15.71944204371248
----
Via the sarex mailing list at AMSAT.ORG courtesy of AMSAT-NA.
To unsubscribe, send "unsubscribe sarex" to Majordomo@amsat.org



AMSAT Top AMSAT Home